Weather in Koldrasinskiy

Russia / The Kabardino-Balkar Republic     43°37′10″N   43°55′17″E
temp.,
°C
wind,
m/s
gust,
m/s
humid.,
%
clouds,
%
prec.,
mm/h
press.,
hPa
HPBL,
m
25 january, mon
mon2500:00−1wnw1170100 0.0 102021
03:00−1nnw0169100 0.0 102021
06:00−1se017495 0.0 102121
09:00+1ene116494 0.0 102031
12:00+5ne1149100 0.0 1019217
15:00+7nne225061 0.0 1017319
18:00+2ene12690 0.0 102022
21:00+1ene01730 0.0 101922
26 january, tue
tue2600:000n117610 0.0 101921
03:000nnw017755 0.0 101821
06:00+1e0171100 0.0 101922
09:00+2nnw2467100 0.0 102199
12:00+6n125092 0.0 1020330
15:00+7w124947 0.0 1019280
18:00+5se116353 0.0 102122
21:00+3se116936 0.0 102122
27 january, wed
wed2700:00+2e117344 0.0 102022
03:00+2ese017527 0.0 101922
06:00+1ene117533 0.0 101822
09:00+3n116636 0.0 101653
12:00+6nne225492 0.0 1013306
15:00+7nne225696 0.0 1011446
18:00+3n1287100 0.0 101122
21:00+2w1190100 0.0 101022
28 january, thu
thu2800:00+1nw1190100 0.0 101022
03:00+1wnw1190100 0.0 100922
06:00+1nnw1188100 0.0 100822
09:00+3nne1178100 0.0 100838
12:00+6n2265100 0.0 1006233
15:00+7nnw1263100 0.0 1004353
18:00+5w1275100 0.0 100622
21:00+3w2284100 0.0 100622
29 january, fri
fri2900:00+3s228375 0.0 100722
03:00+3wsw228440 0.0 100825
06:00+4ene008799 0.0 100822
09:00+5s2286100 0.1 100864
12:00+8ese236963 0.0 1008584
15:00+9ne226654 0.0 1009723
18:00+5nnw698244 0.1 1011540
21:00+3nw259173 3.9 1013414